Content
SEND FEEDBACK

Daily
Averages
Monthly
Summary
Peru

TUMBES, PERU


Home > South America > Peru
Elevation: 89 feet     Latitude: 03 33S     Longitude: 080 24W

WEATHER
 
SELECT A DAY
Number of Records: 49,435;   Date Range: 7/4/96 - 9/21/14
 
SHARE

PRINT THIS DATA

[ ← Previous Day ]
WEATHER ALMANAC - JANUARY 31, 2013
[ Next Day → ]
[ °C ]   °F
Weather ElementAverageHighLow
Temperature82.7 °F87.8 °F (10:00 am)75.2 °F (7:00 am)
Dewpoint71.4 °F73.4 °F (4:00 pm)68 °F (10:00 am)
Humidity67.9 %89 % (7:00 am)45 % (10:00 am)
Barometer29.80 in29.88 in (10:00 pm)29.74 in (4:00 pm)
Wind Speed4.3 mph9.2 mph (1:00 pm)
Weather ElementAverage
Visibility6.2 mi
Wind DirectionNE (45.6 °)

Weather ElementTotal
Precipitation---
Cooling Degree Days16.5 (Base 65)
Growing Degree Days31.5 (Base 50)
Averaged from 20 records on January 31, 2013
WEATHER CONDITIONS BREAKOUT
WIND DIRECTION BREAKOUT
WEATHER BY HOUR - JANUARY 31, 2013
[ °C ]   °F
Local TimeTemperatureDewpointHumidityBarometerVisibilityWind DirectionWind SpeedGust SpeedPrecipitationEventsConditions
7:00 AM75.2 °F71.6 °F89 %29.80 in6.2 miCalmMostly Cloudy
8:00 AM78.8 °F71.6 °F78 %29.83 in6.2 miVariable2.3 mphMostly Cloudy
9:00 AM82.4 °F71.6 °F70 %29.83 in6.2 miCalmScattered Clouds
10:00 AM87.0 °F69.0 °F45 %29.84 in6.0 mi°2.3 mphClear
10:00 AM87.8 °F68.0 °F52 %29.83 inVariable2.3 mphClear
11:00 AM87.8 °F69.8 °F55 %29.83 in6.2 miVariable2.3 mphPartly Cloudy
12:00 PM87.8 °F71.6 °F58 %29.80 in6.2 miNE (50°)8.1 mphScattered Clouds
1:00 PM87.8 °F69.8 °F55 %29.80 in6.2 miNE (50°)9.2 mphPartly Cloudy
2:00 PM87.8 °F69.8 °F55 %29.77 in6.2 miENE (70°)9.2 mphScattered Clouds
3:00 PM86.0 °F71.6 °F62 %29.77 in6.2 miNE (50°)6.9 mphMostly Cloudy
4:00 PM82.4 °F73.4 °F74 %29.74 in6.2 miENE (70°)8.1 mphOvercast
4:00 PM83.0 °F73.0 °F64 %29.76 in6.0 miENE (70°)8.1 mphPartly Cloudy
5:00 PM82.4 °F71.6 °F70 %29.74 in6.2 miEast (90°)6.9 mphOvercast
6:00 PM82.4 °F71.6 °F70 %29.74 in6.2 miEast (90°)4.6 mphOvercast
7:00 PM81.0 °F73.0 °F70 %29.78 in6.0 mi°2.3 mphPartly Cloudy
7:00 PM80.6 °F73.4 °F79 %29.77 in6.2 miVariable2.3 mphOvercast
8:00 PM78.8 °F71.6 °F78 %29.80 in6.2 miVariable1.2 mphOvercast
9:00 PM78.8 °F71.6 °F78 %29.83 in6.2 miVariable2.3 mphOvercast
10:00 PM78.0 °F72.0 °F77 %29.88 in6.0 miSE (140°)3.5 mphPartly Cloudy
10:00 PM78.8 °F71.6 °F78 %29.86 in6.2 miSE (140°)3.5 mphOvercast
Hourly data recorded from SPME, located miles away from Tumbes, Peru







STORIES FROM OUR PARTNERS